Weather History for Mobile Downtown, AL

Change the Weather History Date:

Monday, October 1, 2012

  Actual Average Record
Temperature  
Mean Temperature 72 °F -  
Max Temperature 79 °F 81 °F 90 °F (1997)
Min Temperature 66 °F 64 °F 48 °F (1999)
Cooling Degree Days 7    
Growing Degree Days 22 (Base 50)    
Moisture  
Dew Point 67 °F    
Average Humidity 79    
Maximum Humidity 90    
Minimum Humidity 62    
Precipitation  
Precipitation 0.51 in - - ()
Sea Level Pressure  
Sea Level Pressure 29.63 in    
Wind  
Wind Speed 8 mph (SW)    
Max Wind Speed 17 mph    
Max Gust Speed 31 mph    
Visibility 9 miles    
Events Rain    
Averages and records for this station are not official NWS values.
T = Trace of Precipitation, MM = Missing Value Source: NWS Daily Summary

Daily Weather History Graph

Daily Weather History Graph

Search for Another Location

Airport:

Trip Planner

Search our weather history database for the weather conditions in past years. The results will help you decide how hot, cold, wet, or windy it might be!

Date:

Astronomy

Oct. 01, 2012 Rise Set
Actual Time 6:46 AM CDT 6:36 PM CDT
Civil Twilight 6:22 AM CDT 7:00 PM CDT
Nautical Twilight 5:54 AM CDT 7:28 PM CDT
Astronomical Twilight 5:26 AM CDT 7:56 PM CDT
Moon 7:24 PM CDT (10/1) 8:05 AM CDT (10/1)
Length of Visible Light 12h 38m
Length of Day
11h 50m
Full, 98% of the Moon is Illuminated
Oct 1
Full
Oct 8
Last Quarter
Oct 15
New
Oct 21
First Quarter
Oct 29
Full

Hourly Weather History & Observations

Time (CDT) Temp. Dew Point Humidity Pressure Visibility Wind Dir Wind Speed Gust Speed Precip Events Conditions
12:03 AM 78.8 °F 73.4 °F 83% 29.63 in 2.5 mi SSW 12.7 mph 31.1 mph 0.13 in Rain Heavy Rain
12:11 AM 77.0 °F 73.4 °F 89% 29.61 in 2.0 mi South 17.3 mph 27.6 mph 0.28 in Rain Heavy Rain
12:37 AM 77.0 °F 73.4 °F 89% 29.61 in 10.0 mi South 8.1 mph 18.4 mph 0.49 in Rain Light Rain
12:53 AM 77.0 °F 73.9 °F 90% 29.60 in 10.0 mi South 3.5 mph - 0.49 in   Mostly Cloudy
1:53 AM 78.1 °F 73.9 °F 87% 29.58 in 10.0 mi Variable 6.9 mph - 0.00 in   Mostly Cloudy
2:53 AM 78.1 °F 73.9 °F 87% 29.56 in 10.0 mi Variable 4.6 mph - N/A   Clear
3:28 AM 78.8 °F 73.4 °F 83% 29.54 in 10.0 mi South 3.5 mph - N/A   Mostly Cloudy
3:53 AM 78.1 °F 73.9 °F 87% 29.55 in 10.0 mi South 3.5 mph - N/A   Mostly Cloudy
4:53 AM 77.0 °F 73.0 °F 88% 29.55 in 10.0 mi SSW 5.8 mph - 0.02 in   Scattered Clouds
5:53 AM 75.9 °F 72.0 °F 87% 29.56 in 10.0 mi SSW 6.9 mph - N/A   Scattered Clouds
6:53 AM 75.9 °F 71.1 °F 85% 29.58 in 10.0 mi SSW 4.6 mph - 0.00 in Rain Light Rain
7:53 AM 77.0 °F 70.0 °F 79% 29.59 in 10.0 mi Variable 3.5 mph - N/A   Scattered Clouds
8:50 AM 77.0 °F 69.8 °F 78% 29.62 in 10.0 mi SSW 10.4 mph 16.1 mph N/A   Mostly Cloudy
8:53 AM 77.0 °F 68.0 °F 74% 29.62 in 10.0 mi Variable 6.9 mph 16.1 mph N/A   Mostly Cloudy
9:53 AM 78.1 °F 66.9 °F 68% 29.63 in 10.0 mi SW 10.4 mph 19.6 mph N/A   Mostly Cloudy
10:53 AM 75.0 °F 64.9 °F 71% 29.65 in 10.0 mi SW 6.9 mph - N/A   Overcast
11:53 AM 75.9 °F 64.9 °F 69% 29.64 in 10.0 mi West 8.1 mph - N/A   Overcast
12:53 PM 77.0 °F 63.0 °F 62% 29.64 in 10.0 mi SW 12.7 mph 20.7 mph N/A   Mostly Cloudy
1:53 PM 75.9 °F 63.0 °F 64% 29.62 in 10.0 mi Variable 5.8 mph 18.4 mph N/A   Mostly Cloudy
2:53 PM 73.9 °F 62.1 °F 66% 29.62 in 10.0 mi WSW 4.6 mph 17.3 mph N/A   Mostly Cloudy
3:53 PM 73.9 °F 63.0 °F 68% 29.62 in 10.0 mi SSW 6.9 mph - N/A   Overcast
5:53 PM 71.1 °F 61.0 °F 70% 29.64 in 10.0 mi West 6.9 mph - N/A   Overcast
6:53 PM 68.0 °F 61.0 °F 78% 29.67 in 10.0 mi West 6.9 mph - N/A   Overcast
7:53 PM 66.0 °F 61.0 °F 84% 29.69 in 10.0 mi West 5.8 mph - N/A   Overcast
8:53 PM 66.9 °F 61.0 °F 81% 29.72 in 10.0 mi West 3.5 mph - N/A   Overcast
9:53 PM 66.0 °F 61.0 °F 84% 29.74 in 10.0 mi West 4.6 mph - N/A   Overcast
10:53 PM 66.0 °F 60.1 °F 81% 29.75 in 10.0 mi West 8.1 mph - N/A   Overcast
11:53 PM 66.0 °F 61.0 °F 84% 29.75 in 10.0 mi West 6.9 mph - N/A   Overcast